Вернуться в каталог

STARLINK-36062

АктивенСвязьVLEO
NORAD 66794·PAYLOAD·🇺🇸 United States

Запущен Dec 1, 2025 с Cape Canaveral Space Force Station

Loading…

Ближайшие Пролёты (ближайшие 24 часа)

TLE

СвежийSource: CelesTrak SupGP

Эпоха: Sep 15, 2026, 03:50 UTC

1 66794C 25278D   26258.16020833  .00044200  00000+0  16004-2 0  2582
2 66794  43.0019 124.5537 0001545 271.3676  91.7961 15.27565875    10

Отслеживайте STARLINK-36062 в реальном времени с AllMySat

Download on the App Store